Weather in Bulgunnyakhtakh

Russia / Sakha (Yakutia) Republic     61°18′00″N   128°39′34″E
temp.,
°C
wind,
m/s
gust,
m/s
humid.,
%
clouds,
%
prec.,
mm/h
press.,
hPa
HPBL,
m
25 february, thu
thu2500:00−30ene019687 0.0 103319
03:00−30ne119694 0.0 103319
06:00−31ne119796 0.0 103319
09:00−30ne119781 0.0 103323
12:00−24nne119191 0.0 1032271
15:00−23n119095 0.0 1031345
18:00−29e119985 0.0 103219
21:00−31ese019972 0.0 103319
26 february, fri
fri2600:00−32ssw0010058 0.0 103419
03:00−33w0010076 0.0 103519
06:00−34wsw0010096 0.0 103619
09:00−32sse009883 0.0 103630
12:00−25ne019040 0.0 1034278
15:00−22ne128967 0.0 1033393
18:00−28ene239977 0.0 103259
21:00−30ene229949 0.0 103324
27 february, sat
sat2700:00−31ene22970 0.0 103226
03:00−31ene229716 0.0 103132
06:00−32ene229781 0.0 103134
09:00−30ene239672 0.0 103099
12:00−24ene249471 0.0 1028336
15:00−21ene369485 0.0 1024447
18:00−22ne3797100 0.0 1024309
21:00−24ne2598100 0.1 1023230
28 february, sun
sun2800:00−26n1399100 0.1 1022146
03:00−26nnw1399100 0.5 1022179
06:00−26wnw2599100 0.3 1023315
09:00−26wnw3796100 0.6 1023424
12:00−25wnw4894100 0.3 1024586
15:00−24wnw5994100 0.5 1025715
18:00−24wnw41094100 0.2 1026829
21:00−24wnw41093100 0.3 1027808
1 march, mon
mon100:00−24wnw41090100 0.1 1027774
03:00−26w41089100 0.1 1028628
06:00−27w4991100 0.0 1028448
09:00−28w4992100 0.0 1028464
12:00−26w488898 0.0 1028700
15:00−24w478499 0.0 10271004
18:00−28w2392100 0.0 102821
21:00−32wsw229589 0.0 102819